Regional Weather Roundup
Issued by NWS

Home | Current Version | Previous Version | Graphics & Text | Print | Product List | Glossary On
Versions: 1 2 3 4 5 6 7 8 9 10 11 12 13 14 15 16 17 18 19 20 21 22 23 24 25 26 27 28 29 30 31 32 33 34 35 36 37 38 39 40 41 42 43 44 45 46 47 48 49 50
812
ASUS45 KTFX 300510
RWRMT
MONTANA REGIONAL WEATHER ROUNDUP
NATIONAL WEATHER SERVICE GREAT FALLS MT
1100 PM MDT FRI APR 29 2016

NOTE: "FAIR" INDICATES FEW OR NO CLOUDS BELOW 12000 FEET WITH NO
SIGNIFICANT WEATHER AND/OR OBSTRUCTIONS TO VISIBILITY.

MTZ001>007-043-300600-
WEST OF THE DIVIDE

CITY           SKY/WX    TMP DP  RH WIND       PRES   REMARKS
KALISPELL      PTCLDY    40  36  86 W3        30.01R
MISSOULA       LGT RAIN  45  37  73 NE7       30.03R
BUTTE          CLOUDY    37  34  89 NW9       29.98R WCI  30
MULLAN PASS    LGT SNOW  32  31  96 CALM      30.02R FOG
ANACONDA         N/A     36  34  93 SW3       30.00R
DEER LODGE       N/A     39  37  93 NW10      30.00R
EUREKA           N/A     45  37  76 CALM      30.03R
HAMILTON         N/A     43  36  75 CALM      30.01R
LIBBY            N/A     45  39  81 CALM      30.04R
PLAINS           N/A     47  38  71 CALM      30.03
$$

MTZ008-052>055-300600-
SOUTHWEST MONTANA

CITY           SKY/WX    TMP DP  RH WIND       PRES   REMARKS
BOZEMAN        CLOUDY    42  31  64 E3        29.96R
DILLON         CLOUDY    42  36  79 W5        29.93R
ENNIS          CLOUDY    41  32  70 N9        29.99R
THREE FORKS      N/A     44  28  53 CALM      29.97R
TWIN BRIDGES     N/A     45  32  60 N12       29.93R
$$

MTZ009-010-012-014-046-048-049-054-300600-
EAST SLOPES AND CENTRAL MONTANA

CITY           SKY/WX    TMP DP  RH WIND       PRES   REMARKS
CUT BANK       CLEAR     38  34  85 E5        30.04R
GREAT FALLS    PTCLDY    42  34  73 E9        30.00R
HELENA         PTCLDY    45  32  60 NE6       29.97R
CHOTEAU          N/A     34  32  93 NE9       30.03R WCI  26
CONRAD           N/A     39  38  97 CALM      30.05S
$$

MTZ011-013-016-021-045-047-050-051-300600-
NORTH CENTRAL MONTANA

CITY           SKY/WX    TMP DP  RH WIND       PRES   REMARKS
HAVRE          CLOUDY    47  39  74 E9        30.06R
LEWISTOWN      CLOUDY    42  33  70 E10       30.04R
N BAR RANCH    CLOUDY    39  37  93 SE6       30.08R
CHINOOK          N/A     46  39  76 E3        30.08R
$$

MTZ017>020-022>027-061-062-300600-
NORTHEAST MONTANA

CITY           SKY/WX    TMP DP  RH WIND       PRES   REMARKS
GLASGOW        CLOUDY    46  36  68 E8        30.11R
JORDAN           N/A     44  38  79 E5        30.09S
SIDNEY         CLOUDY    45  32  61 N6        30.13R
WOLF POINT     CLOUDY    45  36  70 CALM      30.13R
PLENTYWOOD       N/A     48  25  40 E10       30.15S
POPLAR           N/A     45  30  57 NE9       30.13S
SCOBEY           N/A     37  21  52 SE2       30.11S
$$

MTZ028>42-056>058-300600-
SOUTHCENTRAL AND SOUTHEAST MONTANA

CITY           SKY/WX    TMP DP  RH WIND       PRES   REMARKS
BAKER          CLOUDY    44  35  70 CALM      30.08F
BILLINGS       CLOUDY    44  37  76 E9        30.03R
LIVINGSTON     CLOUDY    42  31  64 E15       29.99R
MILES CITY     CLOUDY    47  35  63 NE7       30.07F
EKALAKA          N/A     39  31  73 SE3       30.04
FORSYTH          N/A     45  39  81 E6        30.07S
LAUREL           N/A     43  30  60 NE5       30.00R
ROUNDUP          N/A     44  35  70 NE5       29.97R
$$

REGIONAL REPORTS...DAKOTAS

CITY           SKY/WX    TMP DP  RH WIND       PRES   REMARKS
WILLISTON      CLEAR     47  27  45 E10       30.15R
MINOT          CLEAR     46  28  49 E7        30.17S
DICKINSON      PTCLDY    41  31  67 E9        30.09R
BEACH            N/A     37  32  81 CALM      30.13S
CROSBY           N/A     36  25  64 E6        30.20R WCI  31
WATFORD CITY     N/A     43  28  56 E8        30.14F
BISMARCK       PTCLDY    45  34  65 NE6       30.13R
GRAND FORKS    CLEAR     47  32  56 E10       30.18S
FARGO          CLEAR     50  31  48 NE10      30.12R
BUFFALO SD       N/A     40  33  76 E3        30.01F
RAPID CITY     CLOUDY    41  37  86 N6        30.05S
$$

REGIONAL REPORTS...WYOMING/IDAHO/WASHINGTON

CITY           SKY/WX    TMP DP  RH WIND       PRES   REMARKS
GILLETTE       CLOUDY    39  37  92 CALM      30.01S
SHERIDAN       CLOUDY    41  36  82 CALM      30.01F
BUFFALO WY       N/A    N/A N/A N/A MISG      30.01F
CODY           CLOUDY    39  32  75 SW3       29.99S
YELLOWSTONE LA   N/A     31  24  75 CALM      29.98R
IDAHO FALLS    CLEAR     39  36  89 S3        29.90R
SALMON         CLOUDY    41  34  75 CALM      29.96R
BOISE          CLEAR     50  36  58 NW14      29.94R
SPOKANE        DRIZZLE   49  45  86 S6        30.03R
$$

REGIONAL REPORTS...ALBERTA

CITY           SKY/WX    TMP DP  RH WIND       PRES   REMARKS
EDMONTON       CLOUDY    54  34  47 S7        30.06R
CALGARY        MOCLDY    45  32  61 S9        30.05R
LETHBRIDGE     CLOUDY    43  37  81 S9        30.05R
MEDICINE HAT   CLOUDY    48  37  66 E7        30.07S
$$

REGIONAL REPORTS...SASKATCHEWAN

CITY           SKY/WX    TMP DP  RH WIND       PRES   REMARKS
SWIFT CURRENT  PTCLDY    37  25  60 SE8       30.12R WCI  31
REGINA         CLEAR     48  18  29 E13       30.19R
SASKATOON      CLEAR     50  25  37 SE14      30.19R
$$




USA.gov is the U.S. government's official web portal to all federal, state and local government web resources and services.